Regional Weather Roundup
Issued by NWS

Home | Current Version | Previous Version | Graphics & Text | Print | Product List | Glossary On
Versions: 1 2 3 4 5 6 7 8 9 10 11 12 13 14 15 16 17 18 19 20 21 22 23 24 25 26 27 28 29 30 31 32 33 34 35 36 37 38 39 40 41 42 43 44 45 46 47 48 49 50
000
ASUS45 KBOU 270407
RWRCO

WEATHER ROUNDUP FOR COLORADO
NATIONAL WEATHER SERVICE DENVER/BOULDER CO
1000 PM MDT TUE MAY 26 2015

NOTE: "FAIR" INDICATES FEW OR NO CLOUDS BELOW 12000 FEET WITH NO
SIGNIFICANT WEATHER AND/OR OBSTRUCTIONS TO VISIBILITY.

COZ001>005-013-030-031-270500-
...NORTHWEST COLORADO...

CITY           SKY/WX    TMP DP  RH WIND       PRES   REMARKS
CRAIG          CLOUDY    50  42  74 E5        30.12R
HAYDEN         CLOUDY    46  41  81 CALM      30.14R
MEEKER         CLOUDY    49  44  83 NE7       30.14R
MOUNT WERNER   NOT AVBL
STEAMBOAT SPGS CLOUDY    45  42  89 SW5       30.15R
WALDEN         PTCLDY    41  36  81 SE6       30.19R
$$

COZ006>008-011-270500-
...WEST CENTRAL VALLEYS...

CITY           SKY/WX    TMP DP  RH WIND       PRES   REMARKS
GRAND JUNCTION CLOUDY    56  47  71 E10       30.10R
MONTROSE       CLOUDY    52  48  86 E7        30.16S
EAGLE          MOCLDY    52  45  76 CALM      30.19R
RIFLE          MOCLDY    52  47  83 SW5       30.15R
DELTA          CLOUDY    56  48  72 MISG      30.13F
NUCLA          CLOUDY    54  46  76 CALM      30.17R
$$

COZ017>023-064>068-270500-
...SOUTHWEST COLORADO...

CITY           SKY/WX    TMP DP  RH WIND       PRES   REMARKS
DURANGO        MOCLDY    54  42  64 SE7       30.18R
CORTEZ         PTCLDY    54  43  66 NE8       30.12R
PAGOSA SPRINGS CLOUDY    49  39  70 NW3       30.22R
TELLURIDE      MOCLDY    45  37  73 E3        30.32R
WOLF CREEK PAS NOT AVBL
$$

COZ009-010-012-014-032>034-037-058>063-270500-
...CENTRAL COLORADO...

CITY           SKY/WX    TMP DP  RH WIND       PRES   REMARKS
ASPEN          NOT AVBL
BUENA VISTA    MOCLDY    50  34  54 W8        30.21R
COPPER MTN     MOCLDY    37  30  75 SW9G21    30.37R
BERTHOUD PASS  FAIR      28  21  74 W18G25    30.38S WCI  16
COTTONWOOD PAS MOCLDY    46  32  57 NW10G20   30.29R
GUNNISON       PTCLDY    48  37  66 CALM      30.25R
KREMMLING      MOCLDY    45  36  70 CALM      30.20R
LEADVILLE      PTCLDY    37  34  89 NE7       30.27R
SALIDA         MOCLDY    53  36  53 SW9       30.26R
SUNLIGHT       PTCLDY    36  36 100 CALM      30.34R
WILKERSON PASS MOCLDY    36  30  80 CALM      30.38R
$$

COZ069>075-270500-
...SAN LUIS VALLEY/SANGRE DE CRISTO MOUNTAINS...

CITY           SKY/WX    TMP DP  RH WIND       PRES   REMARKS
ALAMOSA        CLEAR     48  39  71 N13       30.21R
LA VETA PASS   MOCLDY   N/A N/A N/A MISG      30.33R
SAGUACHE       PTCLDY    45  41  87 NW9       30.24R
$$

COZ035-036-038>040-270500-
...NORTHERN COLORADO FRONT RANGE...

CITY           SKY/WX    TMP DP  RH WIND       PRES   REMARKS
DENVER INTL AP MOCLDY    53  47  79 S10       30.07R
DMNS CITY PARK   N/A     56  47  69 S6G12     30.07R
AURORA         MOCLDY    53  47  79 S13       30.09S
FRONT RANGE AP NOT AVBL
ERIE MUNI ARPT PTCLDY    55  45  70 CALM      30.05R
BOULDER MUN AP PTCLDY    55  43  62 W3        30.06R
CENTENNIAL     MOCLDY    53  48  83 S10       30.10S
BROOMFIELD     PTCLDY    55  43  62 SW5       30.07R
FORT COLLINS   PTCLDY    55  46  71 NE3       30.06R
LONGMONT       PTCLDY    52  48  85 W7        30.07R
$$

COZ041-046-047-076>085-087-088-270500-
...PIKES PEAK/PALMER DIVIDE AND SOUTHERN FOOTHILLS...

CITY           SKY/WX    TMP DP  RH WIND       PRES   REMARKS
COLO. SPRINGS  CLOUDY    52  47  83 E8        30.15S
A. F. ACADEMY  CLOUDY    50  45  84 SW7       30.17R
ELLICOTT       TSTM     N/A N/A N/A W3        30.16R
FALCON         RAIN      48  46  93 NE9       30.19F
FORT CARSON    PTCLDY    52  48  87 N7        30.13R
LIMON          CLOUDY    55  49  80 SE7       30.11R
MONUMENT HILL    N/A     46  43  87 NE9       30.18R
TRINIDAD       CLOUDY    56  48  74 S9        30.11R
$$

COZ042>045-048>051-090-091-270500-
...NORTHEAST COLORADO...

CITY           SKY/WX    TMP DP  RH WIND       PRES   REMARKS
GREELEY ARPT   PTCLDY    54  48  82 CALM      30.05R
AKRON          PTCLDY    55  49  80 SE10      30.07R
BURLINGTON     PTCLDY    55  50  83 S9        30.07R
WRAY           PTCLDY    57  52  84 E5        30.05R
STERLING       PTCLDY    59  50  72 SE3       30.03R
HOLYOKE        PTCLDY    59  52  77 SE7       30.05R
FORT MORGAN    PTCLDY    54  49  85 E6        30.05R
$$

COZ086-089-092>099-270500-
...SOUTHEAST COLORADO...

CITY           SKY/WX    TMP DP  RH WIND       PRES   REMARKS
PUEBLO         LGT RAIN  59  51  75 E14       30.05F
LA JUNTA       TSTM      62  54  74 SE9       30.04F
LAMAR          MOCLDY    62  54  74 E9        30.02R
SPRINGFIELD      N/A     59  52  77 S8        30.07R
$$



USA.gov is the U.S. government's official web portal to all federal, state and local government web resources and services.